This is the latest recevied weather packets stored in our database for station/object KD4IZ-13. If no packets are shown the sender has not sent any weather packets the latest 10 day(s).
| Time | Temp. | Humidity | Pressure | Rain* | Wind** | Luminosity | Snow |
|---|---|---|---|---|---|---|---|
| 1777517970 | 11.11° C | 99% | 1010 hPa | 0 mm | - | 0 W/m² | - |
| 1777517666 | 11.11° C | 99% | 1010.2 hPa | 0 mm | - | 0 W/m² | - |
| 1777517362 | 11.11° C | 99% | 1010.1 hPa | 0 mm | - | 0 W/m² | - |
| 1777517062 | 11.11° C | 99% | 1010.1 hPa | 0 mm | - | 0 W/m² | - |
| 1777516759 | 11.11° C | 99% | 1009.9 hPa | 0 mm | - | 0 W/m² | - |
| 1777516455 | 11.11° C | 99% | 1010.1 hPa | 0 mm | - | 0 W/m² | - |
| 1777516150 | 11.11° C | 99% | 1009.8 hPa | 1.27 mm | - | 0 W/m² | - |
| 1777515848 | 11.11° C | 99% | 1009.7 hPa | 1.27 mm | - | 0 W/m² | - |
| 1777515544 | 11.11° C | 99% | 1009.7 hPa | 1.78 mm | - | 0 W/m² | - |
| 1777515241 | 11.11° C | 99% | 1009.5 hPa | 4.83 mm | - | 0 W/m² | - |
| 1777514936 | 11.11° C | 99% | 1009.8 hPa | 4.83 mm | - | 0 W/m² | - |
| 1777514633 | 11.11° C | 99% | 1009.9 hPa | 3.05 mm | - | 0 W/m² | - |
| 1777514331 | 11.11° C | 99% | 1009.8 hPa | 7.11 mm | - | 0 W/m² | - |
| 1777514027 | 11.11° C | 99% | 1010.2 hPa | 6.1 mm | - | 0 W/m² | - |
| 1777513725 | 11.11° C | 99% | 1010.1 hPa | 1.78 mm | - | 0 W/m² | - |
| 1777513422 | 11.11° C | 99% | 1009.7 hPa | 3.05 mm | - | 0 W/m² | - |
| 1777513118 | 11.11° C | 99% | 1009.6 hPa | 1.27 mm | - | 0 W/m² | - |
| 1777512814 | 11.11° C | 99% | 1009.8 hPa | 1.78 mm | - | 0 W/m² | - |
| 1777512511 | 11.11° C | 99% | 1009.6 hPa | 4.83 mm | - | 0 W/m² | - |
| 1777512208 | 11.11° C | 99% | 1009.7 hPa | 6.1 mm | - | 0 W/m² | - |
| 1777511905 | 11.11° C | 99% | 1009.6 hPa | 8.89 mm | - | 0 W/m² | - |
| 1777511603 | 11.11° C | 99% | 1009.6 hPa | 13.72 mm | - | 0 W/m² | - |
| 1777511300 | 11.67° C | 99% | 1009.9 hPa | 13.72 mm | - | 0 W/m² | - |
| 1777510996 | 11.67° C | 99% | 1009.9 hPa | 10.67 mm | - | 0 W/m² | - |
| 1777510693 | 11.67° C | 99% | 1009.7 hPa | 10.16 mm | - | 0 W/m² | - |
* Rain latest hour (hover to see other rain measurements)
** Current wind speed in m/s (hover to see current wind gust speed)